Weather in Verkh-Uryum

Russia / Novosibirsk Oblast     54°29′30″N   78°35′25″E
temp.,
°C
wind,
m/s
gust,
m/s
humid.,
%
clouds,
%
prec.,
mm/h
press.,
hPa
HPBL,
m
23 may, mon
mon2301:00+12sw61350100 1.2 1010466
04:00+11wsw714400 0.0 1014608
07:00+10sw510530 0.0 1017516
10:00+14sw67426 0.0 10191202
13:00+18sw68294 0.0 10202132
16:00+20sw57295 0.0 10192374
19:00+20ssw57305 0.0 10192312
22:00+15sse454330 0.0 101962
24 may, tue
tue2401:00+13sse410445 0.0 1020152
04:00+12s474313 0.0 1019105
07:00+13s36472 0.0 1020107
10:00+19s45345 0.0 1020510
13:00+23sse222796 0.0 10191504
16:00+25e2127100 0.0 10181934
19:00+24ene3331100 0.0 10171647
22:00+19ene2246100 0.0 101819
25 may, wed
wed2501:00+17ne225172 0.0 101811
04:00+15ne33549 0.0 101821
07:00+15nne365934 0.0 1018109
10:00+22ne574456 0.0 1018525
13:00+26ene57334 0.0 10171673
16:00+27ene67320 0.0 10162150
19:00+27ene58360 0.0 10162163
22:00+21ene33541 0.0 101629
26 may, thu
thu2601:00+18e225612 0.0 101716
04:00+17ene3460100 0.0 101751
07:00+16ene41066100 0.0 1017221
10:00+22e7115246 0.0 1016621
13:00+26e79381 0.0 10151571
16:00+27e78340 0.0 10131824
19:00+26ese56400 0.0 10121417
22:00+20e512530 0.0 1012271
27 may, fri
fri2701:00+18ese614510 0.0 1011312
04:00+16ese411560 0.0 1011238
07:00+16ese410620 0.0 1011211
10:00+23se45465 0.0 1011503
13:00+26s2342100 0.1 10111282
16:00+23wnw775848 0.4 1012491
19:00+23nw57572 2.6 1012526
22:00+18nw512653 0.1 1012250